Showing default

XM-7, 47240

Orbit data source: Space-Track

XM-7, 47240 is a payload satellite owned by Sirius XM (US) in GEO that was launched on Sun, 13 Dec 2020 UTC via an FALCON 9 launch vehicle from the Air Force Eastern Test Range (AFETR). Payload-class satellites include a variety of spacecraft equipped with specific instruments for various scientific and technological missions. These include communications satellites like Starlink; space stations such as the ISS; scientific satellites like the Hubble; Earth observation satellites from companies like Planet Labs, Umbra, and HawkEye 360; GPS; miniature CubeSats for education and research; and military/defense satellites.

Loading next visibility...
Identifier
47240, 2020-096A
Orbit
GEO
Country
Flag of USUS
Related business
Manufacturer
Maxar Space Sol
Mission
Partially operational Commercial Communications
Bus & Motor
LS-1300, R-4D
Mass
~7,000 kg wet, ~2,884 kg dry
Launch date (UTC)
2020-12-13 (5 years ago)
Launch vehicle
FALCON 9
Launch site
Air Force Eastern Test Range (AFETR)
Object type
Payload
Rocket body
Debris
Shape & HBR
Box + 2 Pan, Unknown HBR
Radar Cross Section
81.349 m², Large (>1 m²)

Expand to show TLE details & history
Last TLE update: 1 day ago

TLE from 1 day ago
0 XM-7
1 47240U 20096A   26162.96280036 -.00000189  00000-0  00000-0 0  9994
2 47240   0.0424 130.0627 0003854 356.9901  34.7082  1.00270745  7390
Epoch: 2026-06-11T23:06Z
TLE epoch observation values (Epoch: 2026-06-11T23:06:25.951Z)
Latitude
0.0126°
Longitude
-85.13154°
Altitude
35,773.076 km
Speed
3.076 km/s
True Right ascension
10h 47m 06s
True Declination
0° 00' 45"
Sunlit
Object was in daylight at epoch
Visualization orbit readout
Latitude
Unknown
Longitude
Unknown
Altitude
Unknown
Speed
Unknown
Apparent Right ascension
Unknown
Apparent Declination
Unknown
Sunlit
N/A
Visualization observer readout
Local Sidereal Time
19:20:30
Azimuth
Unknown
Elevation
Unknown
Doppler factor
Unknown
Orbital elements
Apogee altitude
35,804.208 km
Perigee altitude
35,771.706 km
Semi-major axis
42,166.094 km
Eccentricity
0.00039
Inclination
0.0424°
RAAN
130.0627°
Arg. of periapsis
356.9901°
True anomaly
34.73336°
Mean anomaly
34.7082°
Eccentric anomaly
34.72078°
Mean motion
0.25067 °/min
Orbital period
1,436.17 mins
BSTAR
0
Loading maneuver chart data...
Computing Atmospheric mass density...
Loading historical data...
Loading historical data...
Loading historical data...
Loading historical data...
Loading historical data...
Loading historical data...
Loading historical data...
Other satellites on launch #96 in the year 2020 (2020-12-13 UTC)

Documentation

Showing up to 5 results
|